Location: Ahstedt
(52.2048°N, 10.1060°E)
Time: 23:56:25
(UTC+00:00)

Cosmos 540 Rocket - Pass Details

Date: 14 April 2026
Orbit: 734 x 748 km, 74.1° (Epoch: 15 May)

Event Time Altitude Azimuth Distance (km) Brightness Sun altitude
Exits shadow 03:34:46 - 200° (SSW) 3,168 6.3 -8.0°
Reaches altitude 10° 03:37:06 10° 199° (SSW) 2,253 5.5 -7.7°
Maximum altitude 03:42:13 81° 114° (ESE) 762 3.6 -7.0°
Drops below altitude 10° 03:47:22 10° 27° (NNE) 2,276 6.8 -6.2°
Sets 03:49:45 0° 26° (NNE) 3,205 7.6 -5.9°
